Starlink 3591

operational
NORAD ID: 51870 Int'l Des: 2022-022 Owner: SPXS Country: US Constellation: starlink
LEOCIRCULAR

Starlink 3591について

説明を読み込み中...

リアルタイム位置

3D地球を読み込み中...

次回通過

高度履歴

Altitude vs Time

uPlot chart will show altitude changes over time

軌道要素

1 51870U 22022U 25259.21533448 .00000608 00000-0 56266-4 0 9995
2 51870 53.2172 72.3675 0001293 90.0803 270.0338 15.08843576196824
Epoch: Sep 16, 2025 • Age: 7 hours

現在のステータス

高度 542.6 km
速度 7.60 km/s
衛星直下点 40.11°N, 62.19°W
打ち上げ日 Mar 3, 2022
運用期間 3.5 years
タイプ internet

技術仕様

分類 Payload
質量 297.00 kg
乾燥質量 275.00 kg
総質量 297.00 kg
長さ 0.20 m
直径 2.80 m
スパン 9.00 m
形状 Box + pan
製造者 SPXS
バスタイプ Starlink
フェーズステータス In Orbit
所有者/国 SPXS/US

大規模コンステレーション

Loading constellations...